Regional Weather Roundup
Issued by NWS

Home | Current Version | Previous Version | Graphics & Text | Print | Product List | Glossary On
Versions: 1 2 3 4 5 6 7 8 9 10 11 12 13 14 15 16 17 18 19 20 21 22 23 24 25 26 27 28 29 30 31 32 33 34 35 36 37 38 39 40 41 42 43 44 45 46 47 48 49 50
000
ASUS43 KMKX 012221
RWRWI

WISCONSIN REGIONAL WEATHER ROUNDUP
NATIONAL WEATHER SERVICE MILWAUKEE/SULLIVAN WI
500 PM CDT SUN MAY 01 2016

NOTE: "FAIR" INDICATES FEW OR NO CLOUDS BELOW 12,000 FEET WITH NO
SIGNIFICANT WEATHER AND/OR OBSTRUCTIONS TO VISIBILITY.

WIZ001-002-006>008-014>016-023>028-012300-
NORTHWEST WISCONSIN

CITY           SKY/WX    TMP DP  RH WIND       PRES   REMARKS
SUPERIOR ARPT  SUNNY     47  36  64 E10       30.20S
ASHLAND        SUNNY     51  36  56 NE14      30.18F
HAYWARD        SUNNY     59  34  39 NE15      30.12S
SIREN          SUNNY     61  27  27 NE12      30.11S
CUMBERLAND     SUNNY     59  32  36 N12       30.09S
RICE LAKE      CLOUDY    61  33  35 N8        30.09S
CHETEK         PTSUNNY   62  32  32 NE5       30.07S
LADYSMITH      MOSUNNY   60  32  34 N7        30.08S
EAU CLAIRE     PTSUNNY   64  31  28 MISG      30.05F
MENOMONIE      CLOUDY    65  31  28 NE6       30.06F
NEW RICHMOND   MOSUNNY   62  32  32 NE10      30.10S
OSCEOLA        MOSUNNY   63  32  31 NE10      30.12S
$$

WIZ003>005-009-010-017-018-012300-
NORTH CENTRAL WISCONSIN

CITY           SKY/WX    TMP DP  RH WIND       PRES   REMARKS
MANITOWISH WTR CLOUDY    60  33  36 NE10      30.09S
ARBOR VITAE    CLOUDY    59  31  33 NE9       30.08S
WOODRUFF       CLOUDY    59  31  33 NE9       30.08S
RHINELANDER    CLOUDY    60  28  29 E10       30.08S
EAGLE RIVER    CLOUDY    58  26  29 NE8       30.07F
LAND O LAKES   CLOUDY    57  30  36 NE6       30.10S
PHILLIPS       CLOUDY    59  31  34 NE6       30.07S
TOMAHAWK       CLOUDY    59  28  30 E8        30.07S
MEDFORD        CLOUDY    59  30  32 E5        30.05R
MERRILL        CLOUDY    61  31  32 E7        30.06S
$$

WIZ029-030-035-036-043>047-012300-
CENTRAL WISCONSIN

CITY           SKY/WX    TMP DP  RH WIND       PRES   REMARKS
WAUSAU         PTSUNNY   63  32  31 E10       30.04R
MOSINEE        PTSUNNY   61  34  36 SE10      30.06S
MARSHFIELD     CLOUDY    60  31  33 SE9       30.05S
STEVENS POINT  CLOUDY    57  32  37 E14G23    30.06S
WAUPACA        CLOUDY    59  35  40 NE8G16    30.08R
WAUTOMA        CLOUDY    57  36  45 E10       30.06R
WISC RAPIDS    MOSUNNY   60  29  30 E14G21    30.06S
CAMP DOUGLAS   CLOUDY    58  37  44 NE14      30.04S
$$

WIZ011>013-019>022-031-037>040-048>050-012300-
NORTHEAST WISCONSIN

CITY           SKY/WX    TMP DP  RH WIND       PRES   REMARKS
ANTIGO         CLOUDY    57  33  40 SE10G17   30.07S
SHAWANO        SUNNY     60  36  40 E13G21    30.08F
OCONTO         SUNNY     55  37  49 NE13      30.09S
STURGEON BAY   SUNNY     54  37  54 NE14      30.12S
GREEN BAY      SUNNY     56  39  53 NE23      30.08S
MANITOWOC      CLOUDY    50  39  66 MISG      30.08R
APPLETON       PTSUNNY   55  34  44 NE17G29   30.05S
CLINTONVILLE   SUNNY     59  34  38 E14       30.07S
OSHKOSH        MOSUNNY   56  38  50 NE15G25   30.05R
$$

WIZ032>034-041-042-053>061-012300-
SOUTHWEST WISCONSIN

CITY           SKY/WX    TMP DP  RH WIND       PRES   REMARKS
LA CROSSE      CLOUDY    58  37  45 E8        30.05S
SPARTA         CLOUDY    58  35  41 NE8G22    30.06R
VIROQUA        PTSUNNY   53  42  66 NE6       30.05S
BOSCOBEL       LGT RAIN  52  46  80 CALM      30.05R
PRAIRIE DU CHI DRIZZLE   50  44  80 NW5       30.05S
PLATTEVILLE    CLOUDY    52  47  83 NE9       30.01F
$$

WIZ056-057-062-063-064-067-068-012300-
SOUTH CENTRAL WISCONSIN

CITY           SKY/WX    TMP DP  RH WIND       PRES   REMARKS
REEDSBURG      LGT RAIN  55  38  53 E9        30.04S
BARABOO/DELLS  DRIZZLE   54  37  52 E9G17     30.04S
LONE ROCK      LGT RAIN  55  44  66 NE5       30.04R
MINERAL POINT  LGT RAIN  52  46  82 N8        30.01F
MADISON        CLOUDY    55  40  56 NE13G22   30.01F
MIDDLETON      CLOUDY    56  43  62 NE13G18   30.02S
WATERTOWN      CLOUDY    54  42  63 E10       30.03S
MONROE         CLOUDY    54  43  66 NE12G17   29.98F
JANESVILLE     CLOUDY    57  43  58 NE13G18   29.99F
$$

WIZ051-052-058>065-066-070>072-012300-
SOUTHEAST WISCONSIN

CITY           SKY/WX    TMP DP  RH WIND       PRES   REMARKS
MILWAUKEE      DRIZZLE   45  40  82 N15       30.04F
WAUKESHA       PTSUNNY   48  39  71 NE12G23   30.05R
MILWAUKEE/TIMM CLOUDY    48  37  66 NE12      30.06R
RACINE         CLOUDY    45  41  86 N12G20    30.05S
BURLINGTON     CLOUDY    48  42  79 NE10G17   30.02F
KENOSHA        CLOUDY    47  42  83 N10       30.02F
FOND DU LAC    PTSUNNY   55  39  54 E18       30.06R
SHEBOYGAN      CLOUDY    48  39  71 NE15      30.07R
WEST BEND      CLOUDY    50  41  71 NE12G20   30.05S
JUNEAU         CLOUDY    54  41  62 E12       30.05R
$$

LSZ147-162-012300-
LAKE SUPERIOR

STATION/POSITION TIME  TEMP    WIND        PRES    WAVE
                       AIR SEA DIR/SP/G            HT/PER
                 (UTC) (F)     (DEG/KT/KT) (MB)    (FT/S)
W MID LAKE BUOY  2150   39 37   60/  6/  8 1022.8F   2/ 5
DEVILS ISLAND    2200   38      30/  4/  5 1023.1F
SAXON HARBOR     2100   40      10/  6/  7 1022.0F
$$

LMZ867-665-643>646-012300-
LAKE MICHIGAN

STATION/POSITION TIME  TEMP    WIND        PRES    WAVE
                       AIR SEA DIR/SP/G            HT/PER
                 (UTC) (F)     (DEG/KT/KT) (MB)    (FT/S)
CHAMBERS ISLAND  2100   51      30/ 10/ 12 1019.6F
N MID LAKE BUOY  2150   43 39   30/  6/  6 1019.4F   1
NORTHPORT PIER   2100   47      90/  2/  5 1019.6F
KEWAUNEE LAKESHO 2100   47      30/ 11/ 15 1018.1S
SHEBOYGAN LAKESH 2200   43      20/ 16/ 18 1018.9R
PORT WASHINGTON  2100   48      30/ 11/ 15 1018.3
S MID LAKE BUOY  2150   41 40   20/  8/ 10 1016.6R   2/ 5
KENOSHA   LAKESH 2200   45     360/ 14/ 17 1016.6F
$$

TC  - TEMPERATURE IN CELSIUS
VSB - VISIBILITY IN STATUTE MILES
WCI - WIND CHILL INDEX
HX  - HEAT INDEX




USA.gov is the U.S. government's official web portal to all federal, state and local government web resources and services.